When you browse on this site, cookies collect data to enhance your experience and personalize the content and advertising you see.
Visit our Privacy Policy to learn more. By continuing to use the site, you agree to this use of cookies and data.
  • In Sweden
  • List of Countries
  • For 7 days
  • Water Temperature
  • Weather Map
  • Weather Widgets
  • user-avatar
    Login

    Hourly Weather Cuiaba

    Today, 30 March, Monday

    Time Temperature Precipitation Wind Pressure Humidity
    00:00 +24°C° 0 mm 0 mps 741 mmHg 88%
    01:00 +24°C° 0 mm 0 mps 740 mmHg 89%
    02:00 +23°C° 0 mm 0 mps 740 mmHg 89%
    03:00 +23°C° 0 mm 0 mps 740 mmHg 89%
    04:00 +23°C° 0 mm 0 mps 740 mmHg 89%
    05:00 +23°C° 0 mm 0 mps 740 mmHg 89%
    06:00 +24°C° 0 mm 0 mps 740 mmHg 88%
    07:00 +25°C° 0 mm 0 mps 741 mmHg 86%
    08:00 +26°C° 0 mm 0 mps 741 mmHg 84%
    09:00 +27°C° 0.7 mm 0 mps 741 mmHg 80%
    10:00 +31°C° 0.7 mm 1 mps 741 mmHg 76%
    11:00 +32°C° 0.7 mm 1 mps 741 mmHg 71%
    12:00 +33°C° 0.6 mm 1 mps 740 mmHg 68%
    13:00 +33°C° 0.6 mm 1 mps 739 mmHg 64%
    14:00 +33°C° 0.6 mm 1 mps 738 mmHg 60%
    15:00 +33°C° 0.1 mm 1 mps 738 mmHg 65%
    16:00 +32°C° 0.1 mm 1 mps 738 mmHg 70%
    17:00 +31°C° 0.1 mm 1 mps 738 mmHg 75%
    18:00 +30°C° 0 mm 1 mps 738 mmHg 77%
    19:00 +29°C° 0 mm 1 mps 738 mmHg 79%
    20:00 +25°C° 0 mm 0 mps 739 mmHg 81%
    21:00 +25°C° 0 mm 0 mps 739 mmHg 82%
    22:00 +25°C° 0 mm 0 mps 739 mmHg 83%
    23:00 +25°C° 0 mm 0 mps 740 mmHg 84%

    Tomorrow, 31 March, Tuesday

    Time Temperature Precipitation Wind Pressure Humidity
    00:00 +24°C° 0.5 mm 0 mps 739 mmHg 86%
    01:00 +24°C° 0.5 mm 0 mps 739 mmHg 88%
    02:00 +23°C° 0.5 mm 0 mps 739 mmHg 90%
    03:00 +23°C° 0.5 mm 0 mps 739 mmHg 91%
    04:00 +23°C° 0.5 mm 0 mps 739 mmHg 92%
    05:00 +23°C° 0.5 mm 0 mps 739 mmHg 93%
    06:00 +24°C° 0 mm 0 mps 739 mmHg 90%
    07:00 +25°C° 0 mm 0 mps 740 mmHg 87%
    08:00 +26°C° 0 mm 0 mps 740 mmHg 84%
    09:00 +28°C° 0.6 mm 0 mps 740 mmHg 77%
    10:00 +32°C° 0.6 mm 1 mps 740 mmHg 70%
    11:00 +33°C° 0.6 mm 1 mps 740 mmHg 63%
    12:00 +33°C° 0.3 mm 1 mps 739 mmHg 62%
    13:00 +34°C° 0.3 mm 1 mps 738 mmHg 62%
    14:00 +34°C° 0.3 mm 1 mps 737 mmHg 61%
    15:00 +33°C° 0.4 mm 1 mps 737 mmHg 67%
    16:00 +32°C° 0.4 mm 1 mps 737 mmHg 73%
    17:00 +31°C° 0.4 mm 1 mps 737 mmHg 79%
    18:00 +29°C° 0 mm 1 mps 737 mmHg 80%
    19:00 +28°C° 0 mm 1 mps 737 mmHg 82%
    20:00 +27°C° 0 mm 1 mps 738 mmHg 83%
    21:00 +27°C° 0 mm 1 mps 738 mmHg 84%
    22:00 +27°C° 0 mm 1 mps 738 mmHg 85%
    23:00 +26°C° 0 mm 1 mps 739 mmHg 85%

    Day after tomorrow, 1 April, Wednesday

    Time Temperature Precipitation Wind Pressure Humidity
    00:00 +26°C° 0.1 mm 1 mps 738 mmHg 86%
    01:00 +26°C° 0.1 mm 1 mps 738 mmHg 86%
    02:00 +23°C° 0.1 mm 0 mps 738 mmHg 87%
    03:00 +23°C° 0 mm 0 mps 738 mmHg 88%
    04:00 +23°C° 0 mm 0 mps 738 mmHg 89%
    05:00 +23°C° 0 mm 0 mps 738 mmHg 89%
    06:00 +24°C° 0 mm 0 mps 739 mmHg 86%
    07:00 +27°C° 0 mm 1 mps 739 mmHg 83%
    08:00 +29°C° 0 mm 1 mps 740 mmHg 80%
    09:00 +30°C° 0 mm 1 mps 740 mmHg 73%
    10:00 +32°C° 0 mm 1 mps 740 mmHg 67%
    11:00 +34°C° 0 mm 1 mps 740 mmHg 60%
    12:00 +34°C° 0.2 mm 1 mps 739 mmHg 60%
    13:00 +34°C° 0.2 mm 1 mps 738 mmHg 61%
    14:00 +34°C° 0.2 mm 1 mps 737 mmHg 61%
    15:00 +33°C° 0.3 mm 1 mps 737 mmHg 68%
    16:00 +32°C° 0.3 mm 1 mps 737 mmHg 74%
    17:00 +30°C° 0.3 mm 1 mps 737 mmHg 81%
    18:00 +29°C° 0 mm 1 mps 737 mmHg 82%
    19:00 +28°C° 0 mm 1 mps 738 mmHg 83%
    20:00 +27°C° 0 mm 1 mps 738 mmHg 84%
    21:00 +27°C° 0 mm 1 mps 739 mmHg 85%
    22:00 +27°C° 0 mm 1 mps 739 mmHg 86%
    23:00 +26°C° 0 mm 1 mps 739 mmHg 88%

    2 April, Thursday

    Time Temperature Precipitation Wind Pressure Humidity
    00:00 +26°C° 0 mm 1 mps 739 mmHg 88%
    01:00 +25°C° 0 mm 1 mps 739 mmHg 88%
    02:00 +25°C° 0 mm 1 mps 739 mmHg 88%
    03:00 +25°C° 0 mm 1 mps 739 mmHg 88%
    04:00 +25°C° 0 mm 1 mps 739 mmHg 89%
    05:00 +24°C° 0 mm 1 mps 739 mmHg 89%
    06:00 +26°C° 0 mm 1 mps 740 mmHg 86%
    07:00 +27°C° 0 mm 1 mps 741 mmHg 82%
    08:00 +28°C° 0 mm 2 mps 741 mmHg 79%
    09:00 +30°C° 0 mm 2 mps 741 mmHg 74%
    10:00 +32°C° 0 mm 2 mps 741 mmHg 69%
    11:00 +34°C° 0 mm 2 mps 741 mmHg 63%
    12:00 +34°C° 0 mm 1 mps 740 mmHg 60%
    13:00 +35°C° 0 mm 1 mps 739 mmHg 57%
    14:00 +34°C° 0 mm 0 mps 738 mmHg 54%
    15:00 +34°C° 0 mm 1 mps 738 mmHg 58%
    16:00 +33°C° 0 mm 1 mps 738 mmHg 63%
    17:00 +32°C° 0 mm 1 mps 738 mmHg 68%
    18:00 +31°C° 0 mm 1 mps 739 mmHg 71%
    19:00 +27°C° 0 mm 0 mps 739 mmHg 73%
    20:00 +26°C° 0 mm 0 mps 740 mmHg 76%
    21:00 +25°C° 0 mm 0 mps 740 mmHg 77%
    22:00 +27°C° 0 mm 1 mps 740 mmHg 79%
    23:00 +27°C° 0 mm 1 mps 740 mmHg 80%

    3 April, Friday

    Time Temperature Precipitation Wind Pressure Humidity
    00:00 +27°C° 0 mm 1 mps 740 mmHg 81%
    01:00 +26°C° 0 mm 1 mps 739 mmHg 82%
    02:00 +26°C° 0 mm 1 mps 739 mmHg 83%
    03:00 +26°C° 0 mm 1 mps 739 mmHg 84%
    04:00 +26°C° 0 mm 1 mps 739 mmHg 85%
    05:00 +25°C° 0 mm 1 mps 739 mmHg 86%
    06:00 +27°C° 0 mm 1 mps 739 mmHg 83%
    07:00 +28°C° 0 mm 1 mps 740 mmHg 81%
    08:00 +29°C° 0 mm 1 mps 740 mmHg 78%
    09:00 +30°C° 0.4 mm 1 mps 740 mmHg 73%
    10:00 +32°C° 0.4 mm 1 mps 740 mmHg 68%
    11:00 +33°C° 0.4 mm 1 mps 740 mmHg 63%
    12:00 +33°C° 0.9 mm 1 mps 739 mmHg 67%
    13:00 +32°C° 0.9 mm 2 mps 738 mmHg 70%
    14:00 +32°C° 0.9 mm 2 mps 738 mmHg 73%
    15:00 +31°C° 0.4 mm 2 mps 737 mmHg 76%
    16:00 +30°C° 0.4 mm 1 mps 737 mmHg 79%
    17:00 +30°C° 0.4 mm 1 mps 737 mmHg 82%
    18:00 +29°C° 0.2 mm 1 mps 738 mmHg 85%
    19:00 +26°C° 0.2 mm 0 mps 738 mmHg 87%
    20:00 +25°C° 0.2 mm 0 mps 738 mmHg 90%
    21:00 +24°C° 0.1 mm 0 mps 739 mmHg 91%
    22:00 +24°C° 0.1 mm 0 mps 739 mmHg 91%
    23:00 +24°C° 0.1 mm 0 mps 739 mmHg 92%

    4 April, Saturday

    Time Temperature Precipitation Wind Pressure Humidity
    00:00 +23°C° 0.1 mm 0 mps 739 mmHg 93%
    01:00 +23°C° 0.1 mm 0 mps 738 mmHg 93%
    02:00 +23°C° 0.1 mm 0 mps 738 mmHg 94%
    03:00 +23°C° 0 mm 0 mps 738 mmHg 94%
    04:00 +23°C° 0 mm 0 mps 738 mmHg 95%
    05:00 +23°C° 0 mm 0 mps 738 mmHg 95%
    06:00 +24°C° 0 mm 0 mps 738 mmHg 92%
    07:00 +25°C° 0 mm 0 mps 739 mmHg 89%
    08:00 +26°C° 0 mm 0 mps 740 mmHg 86%
    09:00 +29°C° 0 mm 1 mps 740 mmHg 79%
    10:00 +31°C° 0 mm 1 mps 739 mmHg 72%
    11:00 +33°C° 0 mm 1 mps 739 mmHg 65%
    12:00 +33°C° 0 mm 1 mps 739 mmHg 63%
    13:00 +34°C° 0 mm 2 mps 738 mmHg 61%
    14:00 +35°C° 0 mm 2 mps 737 mmHg 59%
    15:00 +33°C° 0 mm 1 mps 737 mmHg 65%
    16:00 +32°C° 0 mm 1 mps 737 mmHg 70%
    17:00 +31°C° 0 mm 1 mps 737 mmHg 75%
    18:00 +28°C° 0 mm 0 mps 737 mmHg 77%
    19:00 +27°C° 0 mm 0 mps 738 mmHg 79%
    20:00 +26°C° 0 mm 0 mps 738 mmHg 81%
    21:00 +25°C° 0.1 mm 0 mps 738 mmHg 83%
    22:00 +27°C° 0.1 mm 1 mps 739 mmHg 84%
    23:00 +27°C° 0.1 mm 1 mps 739 mmHg 86%
    Show more